Time,TemperatureF,DewpointF,PressureIn,WindDirection,WindDirectionDegrees,WindSpeedMPH,WindSpeedGustMPH,Humidity,HourlyPrecipIn,Conditions,Clouds,dailyrainin,SoftwareType,DateUTC
2013-08-16 00:00:00,70.7,68.9,29.97,SE,135,3.0,-999.0,94,0.00,,,0.00,Wunderground v.1.15,2013-08-16 05:00:00,
2013-08-16 00:05:00,70.7,68.9,29.97,SE,135,3.0,-999.0,94,0.00,,,0.00,Wunderground v.1.15,2013-08-16 05:05:00,
2013-08-16 00:10:00,70.7,68.9,29.97,SE,135,3.0,-999.0,94,0.00,,,0.00,Wunderground v.1.15,2013-08-16 05:10:00,
2013-08-16 00:15:00,70.6,68.8,29.97,SE,135,5.0,-999.0,94,0.00,,,0.00,Wunderground v.1.15,2013-08-16 05:15:00,
2013-08-16 00:20:00,70.6,68.8,29.97,SE,135,4.0,-999.0,94,0.00,,,0.00,Wunderground v.1.15,2013-08-16 05:20:00,
2013-08-16 00:25:00,70.5,68.7,29.97,SSE,158,5.0,-999.0,94,0.00,,,0.00,Wunderground v.1.15,2013-08-16 05:25:00,
2013-08-16 00:30:00,70.3,68.5,29.96,SSE,158,4.0,-999.0,94,0.00,,,0.00,Wunderground v.1.15,2013-08-16 05:30:00,
2013-08-16 00:35:00,70.1,68.3,29.96,SE,135,4.0,-999.0,94,0.00,,,0.00,Wunderground v.1.15,2013-08-16 05:35:00,
2013-08-16 00:45:00,69.9,68.4,29.96,SSE,158,5.0,-999.0,95,0.00,,,0.00,Wunderground v.1.15,2013-08-16 05:45:00,
2013-08-16 00:50:00,69.8,68.3,29.96,SE,135,5.0,-999.0,95,0.00,,,0.00,Wunderground v.1.15,2013-08-16 05:50:00,
2013-08-16 00:55:00,69.7,68.2,29.96,SE,135,4.0,-999.0,95,0.00,,,0.00,Wunderground v.1.15,2013-08-16 05:55:00,
2013-08-16 01:00:00,69.6,68.1,29.95,SE,135,3.0,-999.0,95,0.00,,,0.00,Wunderground v.1.15,2013-08-16 06:00:00,
2013-08-16 01:05:00,69.5,68.0,29.95,SSE,158,4.0,-999.0,95,0.00,,,0.00,Wunderground v.1.15,2013-08-16 06:05:00,
2013-08-16 01:10:00,69.6,68.4,29.95,SSE,158,4.0,-999.0,96,0.00,,,0.00,Wunderground v.1.15,2013-08-16 06:10:00,
2013-08-16 01:15:00,69.5,68.3,29.95,SSE,158,5.0,-999.0,96,0.00,,,0.00,Wunderground v.1.15,2013-08-16 06:15:00,
2013-08-16 01:20:00,69.6,68.4,29.95,SE,135,5.0,-999.0,96,0.00,,,0.00,Wunderground v.1.15,2013-08-16 06:20:00,
2013-08-16 01:25:00,69.6,68.1,29.95,SE,135,5.0,-999.0,95,0.00,,,0.00,Wunderground v.1.15,2013-08-16 06:25:00,
2013-08-16 01:30:00,69.6,68.1,29.95,SE,135,4.0,-999.0,95,0.00,,,0.00,Wunderground v.1.15,2013-08-16 06:30:00,
2013-08-16 01:35:00,69.8,68.3,29.95,SSE,158,5.0,-999.0,95,0.00,,,0.00,Wunderground v.1.15,2013-08-16 06:35:00,
2013-08-16 01:40:00,69.9,68.4,29.95,SE,135,4.0,-999.0,95,0.00,,,0.00,Wunderground v.1.15,2013-08-16 06:40:00,
2013-08-16 01:45:00,69.9,68.4,29.94,SSE,158,4.0,-999.0,95,0.00,,,0.00,Wunderground v.1.15,2013-08-16 06:45:00,
2013-08-16 01:50:00,69.9,68.4,29.94,SSE,158,5.0,-999.0,95,0.00,,,0.00,Wunderground v.1.15,2013-08-16 06:50:00,
2013-08-16 01:55:00,70.0,68.2,29.94,SSE,158,5.0,-999.0,94,0.00,,,0.00,Wunderground v.1.15,2013-08-16 06:55:00,
2013-08-16 02:00:00,69.9,68.1,29.93,SSE,158,4.0,-999.0,94,0.00,,,0.00,Wunderground v.1.15,2013-08-16 07:00:00,
2013-08-16 02:05:00,69.8,68.3,29.93,SSE,158,4.0,-999.0,95,0.00,,,0.00,Wunderground v.1.15,2013-08-16 07:05:00,
2013-08-16 02:10:00,69.8,68.3,29.93,SSE,158,4.0,-999.0,95,0.00,,,0.00,Wunderground v.1.15,2013-08-16 07:10:00,
2013-08-16 02:15:00,69.8,68.3,29.93,SSE,158,4.0,-999.0,95,0.00,,,0.00,Wunderground v.1.15,2013-08-16 07:15:00,
2013-08-16 02:20:00,69.9,68.1,29.93,SSE,158,5.0,-999.0,94,0.00,,,0.00,Wunderground v.1.15,2013-08-16 07:20:00,
2013-08-16 02:25:00,70.1,68.3,29.93,SSE,158,5.0,-999.0,94,0.00,,,0.00,Wunderground v.1.15,2013-08-16 07:25:00,
2013-08-16 02:30:00,70.2,68.4,29.93,SSE,158,5.0,-999.0,94,0.00,,,0.00,Wunderground v.1.15,2013-08-16 07:30:00,
2013-08-16 02:35:00,70.3,68.5,29.93,SSE,158,6.0,-999.0,94,0.00,,,0.00,Wunderground v.1.15,2013-08-16 07:35:00,
2013-08-16 02:40:00,70.5,68.7,29.93,SSE,158,5.0,-999.0,94,0.00,,,0.00,Wunderground v.1.15,2013-08-16 07:40:00,
2013-08-16 02:45:00,70.5,68.4,29.93,SSE,158,5.0,-999.0,93,0.00,,,0.00,Wunderground v.1.15,2013-08-16 07:45:00,
2013-08-16 02:50:00,70.6,68.5,29.93,SSE,158,5.0,-999.0,93,0.00,,,0.00,Wunderground v.1.15,2013-08-16 07:50:00,
2013-08-16 02:55:00,70.6,68.5,29.93,SSE,158,5.0,-999.0,93,0.00,,,0.00,Wunderground v.1.15,2013-08-16 07:55:00,
2013-08-16 03:00:00,70.5,68.7,29.93,SSE,158,4.0,-999.0,94,0.00,,,0.00,Wunderground v.1.15,2013-08-16 08:00:00,
2013-08-16 03:05:00,70.4,68.6,29.93,SSE,158,4.0,-999.0,94,0.00,,,0.00,Wunderground v.1.15,2013-08-16 08:05:00,
2013-08-16 03:10:00,70.3,68.5,29.93,SSE,158,4.0,-999.0,94,0.00,,,0.00,Wunderground v.1.15,2013-08-16 08:10:00,
2013-08-16 03:15:00,70.3,68.5,29.93,SSE,158,4.0,-999.0,94,0.00,,,0.00,Wunderground v.1.15,2013-08-16 08:15:00,
2013-08-16 03:20:00,70.4,68.9,29.93,SSE,158,5.0,-999.0,95,0.00,,,0.00,Wunderground v.1.15,2013-08-16 08:20:00,
2013-08-16 03:25:00,70.5,69.0,29.93,SSE,158,4.0,-999.0,95,0.00,,,0.00,Wunderground v.1.15,2013-08-16 08:25:00,
2013-08-16 03:30:00,70.6,69.1,29.93,SSE,158,5.0,-999.0,95,0.00,,,0.00,Wunderground v.1.15,2013-08-16 08:30:00,
2013-08-16 03:35:00,70.6,68.8,29.93,SSE,158,3.0,-999.0,94,0.00,,,0.00,Wunderground v.1.15,2013-08-16 08:35:00,
2013-08-16 03:40:00,70.6,68.8,29.93,SSE,158,3.0,-999.0,94,0.00,,,0.00,Wunderground v.1.15,2013-08-16 08:40:00,
2013-08-16 03:45:00,70.6,68.8,29.93,South,180,2.0,-999.0,94,0.00,,,0.00,Wunderground v.1.15,2013-08-16 08:45:00,
2013-08-16 03:50:00,70.5,68.7,29.93,SSE,158,2.0,-999.0,94,0.00,,,0.00,Wunderground v.1.15,2013-08-16 08:50:00,
2013-08-16 03:55:00,70.4,68.6,29.93,SSE,158,1.0,-999.0,94,0.00,,,0.00,Wunderground v.1.15,2013-08-16 08:55:00,
2013-08-16 04:00:00,70.3,68.5,29.93,SSE,158,1.0,-999.0,94,0.00,,,0.00,Wunderground v.1.15,2013-08-16 09:00:00,
2013-08-16 04:05:00,70.2,68.4,29.93,SSE,158,2.0,-999.0,94,0.00,,,0.00,Wunderground v.1.15,2013-08-16 09:05:00,
2013-08-16 04:10:00,70.2,68.4,29.93,SSE,158,2.0,-999.0,94,0.00,,,0.00,Wunderground v.1.15,2013-08-16 09:10:00,
2013-08-16 04:15:00,70.2,68.4,29.93,SSE,158,2.0,-999.0,94,0.00,,,0.00,Wunderground v.1.15,2013-08-16 09:15:00,
2013-08-16 04:20:00,70.3,68.5,29.94,SE,135,2.0,-999.0,94,0.00,,,0.00,Wunderground v.1.15,2013-08-16 09:20:00,
2013-08-16 04:25:00,70.4,68.6,29.94,SE,135,1.0,-999.0,94,0.00,,,0.00,Wunderground v.1.15,2013-08-16 09:25:00,
2013-08-16 04:30:00,70.5,68.7,29.94,SE,135,1.0,-999.0,94,0.00,,,0.00,Wunderground v.1.15,2013-08-16 09:30:00,
2013-08-16 04:35:00,70.5,68.7,29.94,SE,135,2.0,-999.0,94,0.00,,,0.00,Wunderground v.1.15,2013-08-16 09:35:00,
2013-08-16 04:40:00,70.6,68.8,29.93,SE,135,1.0,-999.0,94,0.00,,,0.00,Wunderground v.1.15,2013-08-16 09:40:00,
2013-08-16 04:45:00,70.4,68.6,29.93,SSE,158,2.0,-999.0,94,0.00,,,0.00,Wunderground v.1.15,2013-08-16 09:45:00,
2013-08-16 04:50:00,70.1,68.3,29.93,SSE,158,2.0,-999.0,94,0.00,,,0.00,Wunderground v.1.15,2013-08-16 09:50:00,
2013-08-16 04:55:00,69.9,68.1,29.93,SSE,158,2.0,-999.0,94,0.00,,,0.00,Wunderground v.1.15,2013-08-16 09:55:00,
2013-08-16 05:00:00,69.8,68.3,29.93,SSE,158,2.0,-999.0,95,0.00,,,0.00,Wunderground v.1.15,2013-08-16 10:00:00,
2013-08-16 05:05:00,69.9,68.4,29.93,SSE,158,3.0,-999.0,95,0.00,,,0.00,Wunderground v.1.15,2013-08-16 10:05:00,
2013-08-16 05:10:00,70.0,68.5,29.93,SSE,158,3.0,-999.0,95,0.00,,,0.00,Wunderground v.1.15,2013-08-16 10:10:00,
2013-08-16 05:15:00,70.0,68.5,29.93,SSE,158,3.0,-999.0,95,0.00,,,0.00,Wunderground v.1.15,2013-08-16 10:15:00,
2013-08-16 05:20:00,69.9,68.4,29.93,SSE,158,3.0,-999.0,95,0.00,,,0.00,Wunderground v.1.15,2013-08-16 10:20:00,
2013-08-16 05:25:00,69.8,68.3,29.93,SSE,158,3.0,-999.0,95,0.00,,,0.00,Wunderground v.1.15,2013-08-16 10:25:00,
2013-08-16 05:30:00,69.8,68.6,29.92,SSE,158,3.0,-999.0,96,0.00,,,0.00,Wunderground v.1.15,2013-08-16 10:30:00,
2013-08-16 05:35:00,69.9,68.7,29.92,SSE,158,4.0,-999.0,96,0.00,,,0.00,Wunderground v.1.15,2013-08-16 10:35:00,
2013-08-16 05:40:00,70.0,68.8,29.92,SSE,158,5.0,-999.0,96,0.00,,,0.00,Wunderground v.1.15,2013-08-16 10:40:00,
2013-08-16 05:45:00,69.9,68.4,29.92,South,180,4.0,-999.0,95,0.00,,,0.00,Wunderground v.1.15,2013-08-16 10:45:00,
2013-08-16 05:50:00,69.8,68.6,29.93,SSE,158,4.0,-999.0,96,0.00,,,0.00,Wunderground v.1.15,2013-08-16 10:50:00,
2013-08-16 05:55:00,69.9,68.7,29.93,SSE,158,4.0,-999.0,96,0.00,,,0.00,Wunderground v.1.15,2013-08-16 10:55:00,
2013-08-16 06:00:00,69.9,68.7,29.93,SE,135,4.0,-999.0,96,0.00,,,0.00,Wunderground v.1.15,2013-08-16 11:00:00,
2013-08-16 06:05:00,69.9,68.7,29.93,SSE,158,4.0,-999.0,96,0.00,,,0.00,Wunderground v.1.15,2013-08-16 11:05:00,
2013-08-16 06:10:00,69.8,68.6,29.93,SSE,158,4.0,-999.0,96,0.00,,,0.00,Wunderground v.1.15,2013-08-16 11:10:00,
2013-08-16 06:15:00,69.8,68.6,29.93,SSE,158,4.0,-999.0,96,0.00,,,0.00,Wunderground v.1.15,2013-08-16 11:15:00,
2013-08-16 06:20:00,69.7,68.5,29.93,SSE,158,3.0,-999.0,96,0.00,,,0.00,Wunderground v.1.15,2013-08-16 11:20:00,
2013-08-16 06:25:00,69.7,68.5,29.93,SSE,158,4.0,-999.0,96,0.00,,,0.00,Wunderground v.1.15,2013-08-16 11:25:00,
2013-08-16 06:30:00,69.7,68.5,29.93,SSE,158,4.0,-999.0,96,0.00,,,0.00,Wunderground v.1.15,2013-08-16 11:30:00,
2013-08-16 06:35:00,69.7,68.5,29.94,SE,135,4.0,-999.0,96,0.00,,,0.00,Wunderground v.1.15,2013-08-16 11:35:00,
2013-08-16 06:40:00,69.5,68.3,29.94,SE,135,3.0,-999.0,96,0.00,,,0.00,Wunderground v.1.15,2013-08-16 11:40:00,
2013-08-16 06:45:00,69.4,68.2,29.94,SSE,158,3.0,-999.0,96,0.00,,,0.00,Wunderground v.1.15,2013-08-16 11:45:00,
2013-08-16 06:50:00,69.4,68.2,29.94,SE,135,3.0,-999.0,96,0.00,,,0.00,Wunderground v.1.15,2013-08-16 11:50:00,
2013-08-16 06:55:00,69.3,68.1,29.94,SSE,158,3.0,-999.0,96,0.00,,,0.00,Wunderground v.1.15,2013-08-16 11:55:00,
2013-08-16 07:00:00,69.3,68.4,29.94,SSE,158,2.0,-999.0,97,0.00,,,0.00,Wunderground v.1.15,2013-08-16 12:00:00,
2013-08-16 07:05:00,69.4,68.5,29.95,SE,135,3.0,-999.0,97,0.00,,,0.00,Wunderground v.1.15,2013-08-16 12:05:00,
2013-08-16 07:10:00,69.4,68.5,29.95,SE,135,3.0,-999.0,97,0.00,,,0.00,Wunderground v.1.15,2013-08-16 12:10:00,
2013-08-16 07:15:00,69.4,68.5,29.95,SE,135,2.0,-999.0,97,0.00,,,0.00,Wunderground v.1.15,2013-08-16 12:15:00,
2013-08-16 07:20:00,69.5,68.6,29.95,SE,135,1.0,-999.0,97,0.00,,,0.00,Wunderground v.1.15,2013-08-16 12:20:00,
2013-08-16 07:25:00,69.5,68.6,29.95,SE,135,1.0,-999.0,97,0.00,,,0.00,Wunderground v.1.15,2013-08-16 12:25:00,
2013-08-16 07:30:00,69.5,68.6,29.95,SSE,158,1.0,-999.0,97,0.00,,,0.00,Wunderground v.1.15,2013-08-16 12:30:00,
2013-08-16 07:35:00,69.7,68.8,29.96,SE,135,1.0,-999.0,97,0.00,,,0.00,Wunderground v.1.15,2013-08-16 12:35:00,
2013-08-16 07:40:00,69.9,69.0,29.96,SE,135,1.0,-999.0,97,0.00,,,0.00,Wunderground v.1.15,2013-08-16 12:40:00,
2013-08-16 07:45:00,70.0,69.1,29.96,SE,135,2.0,-999.0,97,0.00,,,0.00,Wunderground v.1.15,2013-08-16 12:45:00,
2013-08-16 07:50:00,70.2,69.3,29.96,SE,135,1.0,-999.0,97,0.00,,,0.00,Wunderground v.1.15,2013-08-16 12:50:00,
2013-08-16 07:55:00,70.5,69.6,29.96,SE,135,1.0,-999.0,97,0.00,,,0.00,Wunderground v.1.15,2013-08-16 12:55:00,
2013-08-16 08:00:00,70.8,69.9,29.97,SE,135,0.0,-999.0,97,0.00,,,0.00,Wunderground v.1.15,2013-08-16 13:00:00,
2013-08-16 08:05:00,71.2,70.3,29.96,SE,135,1.0,-999.0,97,0.00,,,0.00,Wunderground v.1.15,2013-08-16 13:05:00,
2013-08-16 08:10:00,71.6,70.7,29.97,SE,135,1.0,-999.0,97,0.00,,,0.00,Wunderground v.1.15,2013-08-16 13:10:00,
2013-08-16 08:15:00,72.0,70.8,29.97,SSE,158,1.0,-999.0,96,0.00,,,0.00,Wunderground v.1.15,2013-08-16 13:15:00,
2013-08-16 08:20:00,72.5,71.3,29.97,SSE,158,1.0,-999.0,96,0.00,,,0.00,Wunderground v.1.15,2013-08-16 13:20:00,
2013-08-16 08:25:00,72.9,71.4,29.97,SE,135,2.0,-999.0,95,0.00,,,0.00,Wunderground v.1.15,2013-08-16 13:25:00,
2013-08-16 08:30:00,73.3,71.5,29.97,SSE,158,3.0,-999.0,94,0.00,,,0.00,Wunderground v.1.15,2013-08-16 13:30:00,
2013-08-16 08:35:00,73.5,71.7,29.97,South,180,3.0,-999.0,94,0.00,,,0.00,Wunderground v.1.15,2013-08-16 13:35:00,
2013-08-16 08:40:00,73.9,71.7,29.98,SSW,203,2.0,-999.0,93,0.00,,,0.00,Wunderground v.1.15,2013-08-16 13:40:00,
2013-08-16 08:45:00,74.4,71.9,29.98,SE,135,2.0,-999.0,92,0.00,,,0.00,Wunderground v.1.15,2013-08-16 13:45:00,
2013-08-16 08:50:00,74.9,72.1,29.98,SSE,158,1.0,-999.0,91,0.00,,,0.00,Wunderground v.1.15,2013-08-16 13:50:00,
2013-08-16 08:55:00,75.3,72.2,29.98,South,180,2.0,-999.0,90,0.00,,,0.00,Wunderground v.1.15,2013-08-16 13:55:00,
2013-08-16 09:00:00,75.7,72.2,29.99,SSE,158,2.0,-999.0,89,0.00,,,0.00,Wunderground v.1.15,2013-08-16 14:00:00,
2013-08-16 09:05:00,76.1,72.3,29.99,SE,135,0.0,-999.0,88,0.00,,,0.00,Wunderground v.1.15,2013-08-16 14:05:00,
2013-08-16 09:10:00,76.8,72.6,29.99,SW,225,0.0,-999.0,87,0.00,,,0.00,Wunderground v.1.15,2013-08-16 14:10:00,
2013-08-16 09:15:00,77.4,72.9,29.99,SW,225,0.0,-999.0,86,0.00,,,0.00,Wunderground v.1.15,2013-08-16 14:15:00,
2013-08-16 09:20:00,78.1,72.9,29.99,SE,135,0.0,-999.0,84,0.00,,,0.00,Wunderground v.1.15,2013-08-16 14:20:00,
2013-08-16 09:25:00,78.7,73.1,30.00,SW,225,0.0,-999.0,83,0.00,,,0.00,Wunderground v.1.15,2013-08-16 14:25:00,
2013-08-16 09:30:00,79.0,73.4,30.00,NNE,23,1.0,-999.0,83,0.00,,,0.00,Wunderground v.1.15,2013-08-16 14:30:00,
2013-08-16 09:35:00,79.0,73.0,30.00,NNE,23,1.0,-999.0,82,0.00,,,0.00,Wunderground v.1.15,2013-08-16 14:35:00,
2013-08-16 09:40:00,78.8,73.2,30.00,North,0,2.0,-999.0,83,0.00,,,0.00,Wunderground v.1.15,2013-08-16 14:40:00,
2013-08-16 09:45:00,79.0,73.0,30.00,North,0,2.0,-999.0,82,0.00,,,0.00,Wunderground v.1.15,2013-08-16 14:45:00,
2013-08-16 09:50:00,79.0,73.4,30.00,North,0,4.0,-999.0,83,0.00,,,0.00,Wunderground v.1.15,2013-08-16 14:50:00,
2013-08-16 09:55:00,79.0,73.7,30.00,NNE,23,3.0,-999.0,84,0.00,,,0.00,Wunderground v.1.15,2013-08-16 14:55:00,
2013-08-16 10:00:00,79.2,72.9,30.00,NNE,23,3.0,-999.0,81,0.00,,,0.00,Wunderground v.1.15,2013-08-16 15:00:00,
2013-08-16 10:05:00,79.2,73.6,30.00,NNE,23,3.0,-999.0,83,0.00,,,0.00,Wunderground v.1.15,2013-08-16 15:05:00,
2013-08-16 10:10:00,79.2,72.9,30.00,NNW,338,4.0,-999.0,81,0.00,,,0.00,Wunderground v.1.15,2013-08-16 15:10:00,
2013-08-16 10:15:00,79.8,73.4,30.00,North,0,4.0,-999.0,81,0.00,,,0.00,Wunderground v.1.15,2013-08-16 15:15:00,
2013-08-16 10:20:00,79.8,73.4,30.01,North,0,5.0,-999.0,81,0.00,,,0.00,Wunderground v.1.15,2013-08-16 15:20:00,
2013-08-16 10:25:00,79.9,73.9,30.01,North,0,6.0,-999.0,82,0.00,,,0.00,Wunderground v.1.15,2013-08-16 15:25:00,
2013-08-16 10:30:00,79.2,73.2,30.02,North,0,8.0,-999.0,82,0.00,,,0.00,Wunderground v.1.15,2013-08-16 15:30:00,
2013-08-16 10:35:00,77.2,72.0,30.02,North,0,9.0,-999.0,84,0.00,,,0.00,Wunderground v.1.15,2013-08-16 15:35:00,
2013-08-16 10:42:00,74.4,70.6,30.03,NNE,12,11.0,14.0,88,0.00,,,0.00,Wunderground v.1.15,2013-08-16 15:42:00,
2013-08-16 10:48:00,74.8,70.3,30.03,NNE,23,12.0,-999.0,86,0.00,,,0.00,Wunderground v.1.15,2013-08-16 15:48:00,
2013-08-16 10:54:00,72.4,69.6,30.03,NNE,14,10.0,13.0,91,0.00,,,0.00,Wunderground v.1.15,2013-08-16 15:54:00,
2013-08-16 11:00:00,72.7,69.3,30.04,NNE,33,11.0,15.0,89,0.00,,,0.00,Wunderground v.1.15,2013-08-16 16:00:00,
2013-08-16 11:06:00,72.8,68.4,30.04,North,1,11.0,15.0,86,0.00,,,0.00,Wunderground v.1.15,2013-08-16 16:06:00,
2013-08-16 11:12:00,72.8,67.7,30.04,NNW,336,11.0,12.0,84,0.00,,,0.00,Wunderground v.1.15,2013-08-16 16:12:00,
2013-08-16 11:18:00,73.7,67.9,30.04,NNW,338,10.0,12.0,82,0.00,,,0.00,Wunderground v.1.15,2013-08-16 16:18:00,
2013-08-16 11:24:00,75.3,68.7,30.04,NNW,342,9.0,10.0,80,0.00,,,0.00,Wunderground v.1.15,2013-08-16 16:24:00,
2013-08-16 11:30:00,76.2,68.5,30.04,NW,322,9.0,9.0,77,0.00,,,0.00,Wunderground v.1.15,2013-08-16 16:30:00,
2013-08-16 11:36:00,75.6,67.9,30.04,North,356,8.0,12.0,77,0.00,,,0.00,Wunderground v.1.15,2013-08-16 16:36:00,
2013-08-16 11:42:00,75.3,68.0,30.03,North,9,6.0,9.0,78,0.00,,,0.00,Wunderground v.1.15,2013-08-16 16:42:00,
2013-08-16 11:48:00,75.2,67.9,30.03,North,4,7.0,17.0,78,0.00,,,0.00,Wunderground v.1.15,2013-08-16 16:48:00,
2013-08-16 11:54:00,75.3,68.0,30.02,NNE,18,7.0,17.0,78,0.00,,,0.00,Wunderground v.1.15,2013-08-16 16:54:00,
2013-08-16 12:00:00,76.2,67.7,30.02,North,356,7.0,17.0,75,0.00,,,0.00,Wunderground v.1.15,2013-08-16 17:00:00,
2013-08-16 12:06:00,76.4,67.9,30.02,North,360,6.0,17.0,75,0.00,,,0.00,Wunderground v.1.15,2013-08-16 17:06:00,
2013-08-16 12:12:00,76.5,67.6,30.02,NNE,19,6.0,17.0,74,0.00,,,0.00,Wunderground v.1.15,2013-08-16 17:12:00,
2013-08-16 12:18:00,76.6,67.3,30.01,North,9,6.0,17.0,73,0.00,,,0.00,Wunderground v.1.15,2013-08-16 17:18:00,
2013-08-16 12:24:00,76.5,66.8,30.01,NNE,13,6.0,17.0,72,0.00,,,0.00,Wunderground v.1.15,2013-08-16 17:24:00,
2013-08-16 12:30:00,76.5,66.8,30.00,NNE,29,7.0,17.0,72,0.00,,,0.00,Wunderground v.1.15,2013-08-16 17:30:00,
2013-08-16 14:12:00,83.3,68.0,29.95,NNE,29,4.0,6.0,60,0.00,,,0.00,Wunderground v.1.15,2013-08-16 19:12:00,
2013-08-16 14:18:00,82.9,68.5,29.94,North,349,4.0,17.0,62,0.00,,,0.00,Wunderground v.1.15,2013-08-16 19:18:00,
2013-08-16 14:24:00,83.0,68.6,29.94,NW,311,3.0,17.0,62,0.00,,,0.00,Wunderground v.1.15,2013-08-16 19:24:00,
2013-08-16 14:30:00,83.4,68.1,29.93,NNW,330,3.0,3.0,60,0.00,,,0.00,Wunderground v.1.15,2013-08-16 19:30:00,
2013-08-16 14:36:00,83.7,66.8,29.92,NW,309,3.0,17.0,57,0.00,,,0.00,Wunderground v.1.15,2013-08-16 19:36:00,
2013-08-16 14:42:00,83.8,66.4,29.92,NW,304,4.0,17.0,56,0.00,,,0.00,Wunderground v.1.15,2013-08-16 19:42:00,
2013-08-16 14:48:00,83.9,64.9,29.91,West,265,3.0,17.0,53,0.00,,,0.00,Wunderground v.1.15,2013-08-16 19:48:00,
2013-08-16 14:54:00,83.9,64.4,29.91,West,266,3.0,17.0,52,0.00,,,0.00,Wunderground v.1.15,2013-08-16 19:54:00,
2013-08-16 15:00:00,83.9,65.5,29.92,NW,318,3.0,17.0,54,0.00,,,0.00,Wunderground v.1.15,2013-08-16 20:00:00,
2013-08-16 15:06:00,83.7,65.3,29.91,SW,231,4.0,17.0,54,0.00,,,0.00,Wunderground v.1.15,2013-08-16 20:06:00,
2013-08-16 15:12:00,84.0,65.0,29.91,West,280,3.0,17.0,53,0.00,,,0.00,Wunderground v.1.15,2013-08-16 20:12:00,
2013-08-16 15:18:00,84.2,63.5,29.91,West,276,2.0,17.0,50,0.00,,,0.00,Wunderground v.1.15,2013-08-16 20:18:00,
2013-08-16 15:24:00,84.5,64.4,29.92,North,359,2.0,17.0,51,0.00,,,0.00,Wunderground v.1.15,2013-08-16 20:24:00,
2013-08-16 15:30:00,84.6,63.3,29.92,NW,314,3.0,3.0,49,0.00,,,0.00,Wunderground v.1.15,2013-08-16 20:30:00,
2013-08-16 15:36:00,85.2,62.7,29.92,North,357,3.0,17.0,47,0.00,,,0.00,Wunderground v.1.15,2013-08-16 20:36:00,
2013-08-16 15:42:00,86.6,61.4,29.92,West,266,4.0,17.0,43,0.00,,,0.00,Wunderground v.1.15,2013-08-16 20:42:00,
2013-08-16 15:48:00,87.5,61.6,29.92,NNE,20,4.0,17.0,42,0.00,,,0.00,Wunderground v.1.15,2013-08-16 20:48:00,
2013-08-16 15:54:00,87.7,61.1,29.92,NW,325,4.0,17.0,41,0.00,,,0.00,Wunderground v.1.15,2013-08-16 20:54:00,
2013-08-16 16:00:00,88.2,61.5,29.92,NNE,13,5.0,17.0,41,0.00,,,0.00,Wunderground v.1.15,2013-08-16 21:00:00,
2013-08-16 16:06:00,88.2,61.5,29.92,NNW,335,4.0,17.0,41,0.00,,,0.00,Wunderground v.1.15,2013-08-16 21:06:00,
2013-08-16 16:12:00,88.5,60.4,29.92,North,358,4.0,17.0,39,0.00,,,0.00,Wunderground v.1.15,2013-08-16 21:12:00,
2013-08-16 16:18:00,88.7,60.6,29.92,NNW,340,5.0,17.0,39,0.00,,,0.00,Wunderground v.1.15,2013-08-16 21:18:00,
2013-08-16 16:24:00,88.8,61.4,29.92,North,358,6.0,17.0,40,0.00,,,0.00,Wunderground v.1.15,2013-08-16 21:24:00,
2013-08-16 16:30:00,89.0,62.2,29.92,NNE,33,6.0,17.0,41,0.00,,,0.00,Wunderground v.1.15,2013-08-16 21:30:00,
2013-08-16 16:36:00,88.8,62.7,29.92,North,11,7.0,17.0,42,0.00,,,0.00,Wunderground v.1.15,2013-08-16 21:36:00,
2013-08-16 16:42:00,89.1,62.3,29.92,ENE,75,6.0,10.0,41,0.00,,,0.00,Wunderground v.1.15,2013-08-16 21:42:00,
2013-08-16 16:48:00,88.9,62.2,29.92,NNE,12,6.0,17.0,41,0.00,,,0.00,Wunderground v.1.15,2013-08-16 21:48:00,
2013-08-16 16:54:00,88.6,62.6,29.92,NNE,16,7.0,17.0,42,0.00,,,0.00,Wunderground v.1.15,2013-08-16 21:54:00,
2013-08-16 17:00:00,89.0,62.9,29.92,NE,39,6.0,6.0,42,0.00,,,0.00,Wunderground v.1.15,2013-08-16 22:00:00,
2013-08-16 17:06:00,89.0,62.9,29.92,NNE,31,5.0,17.0,42,0.00,,,0.00,Wunderground v.1.15,2013-08-16 22:06:00,
2013-08-16 17:12:00,89.0,61.5,29.92,NNE,31,6.0,17.0,40,0.00,,,0.00,Wunderground v.1.15,2013-08-16 22:12:00,
2013-08-16 17:18:00,89.0,62.2,29.92,NNW,348,6.0,17.0,41,0.00,,,0.00,Wunderground v.1.15,2013-08-16 22:18:00,
2013-08-16 17:24:00,89.0,60.8,29.92,NNE,25,5.0,17.0,39,0.00,,,0.00,Wunderground v.1.15,2013-08-16 22:24:00,
2013-08-16 17:30:00,87.9,61.3,29.92,NNE,23,5.0,17.0,41,0.00,,,0.00,Wunderground v.1.15,2013-08-16 22:30:00,
2013-08-16 17:36:00,87.1,61.2,29.91,North,9,6.0,17.0,42,0.00,,,0.00,Wunderground v.1.15,2013-08-16 22:36:00,
2013-08-16 17:42:00,86.8,62.3,29.92,North,356,5.0,17.0,44,0.00,,,0.00,Wunderground v.1.15,2013-08-16 22:42:00,
2013-08-16 17:48:00,86.4,62.5,29.92,NNE,13,6.0,17.0,45,0.00,,,0.00,Wunderground v.1.15,2013-08-16 22:48:00,
2013-08-16 17:54:00,87.1,62.5,29.92,NNE,18,5.0,17.0,44,0.00,,,0.00,Wunderground v.1.15,2013-08-16 22:54:00,
2013-08-16 18:00:00,87.3,62.7,29.92,North,352,6.0,17.0,44,0.00,,,0.00,Wunderground v.1.15,2013-08-16 23:00:00,
2013-08-16 18:06:00,87.8,63.2,29.92,NNE,16,5.0,17.0,44,0.00,,,0.00,Wunderground v.1.15,2013-08-16 23:06:00,
2013-08-16 18:12:00,87.4,62.8,29.92,NNE,16,5.0,17.0,44,0.00,,,0.00,Wunderground v.1.15,2013-08-16 23:12:00,
2013-08-16 18:18:00,87.2,63.3,29.91,NNE,23,6.0,17.0,45,0.00,,,0.00,Wunderground v.1.15,2013-08-16 23:18:00,
2013-08-16 18:24:00,87.2,63.3,29.91,North,1,6.0,17.0,45,0.00,,,0.00,Wunderground v.1.15,2013-08-16 23:24:00,
2013-08-16 18:30:00,87.2,63.9,29.91,NNE,18,5.0,5.0,46,0.00,,,0.00,Wunderground v.1.15,2013-08-16 23:30:00,
2013-08-16 18:36:00,86.9,63.6,29.91,NE,41,5.0,17.0,46,0.00,,,0.00,Wunderground v.1.15,2013-08-16 23:36:00,
2013-08-16 18:42:00,86.8,64.8,29.91,ENE,67,5.0,17.0,48,0.00,,,0.00,Wunderground v.1.15,2013-08-16 23:42:00,
2013-08-16 18:48:00,86.8,64.8,29.91,NE,51,4.0,17.0,48,0.00,,,0.00,Wunderground v.1.15,2013-08-16 23:48:00,
2013-08-16 18:54:00,86.7,65.3,29.91,NW,319,4.0,17.0,49,0.00,,,0.00,Wunderground v.1.15,2013-08-16 23:54:00,
2013-08-16 19:00:00,86.5,65.7,29.91,NNW,345,4.0,4.0,50,0.00,,,0.00,Wunderground v.1.15,2013-08-17 00:00:00,
2013-08-16 19:06:00,86.5,65.7,29.91,NNE,16,3.0,17.0,50,0.00,,,0.00,Wunderground v.1.15,2013-08-17 00:06:00,
2013-08-16 19:12:00,86.2,65.4,29.91,NNE,24,3.0,17.0,50,0.00,,,0.00,Wunderground v.1.15,2013-08-17 00:12:00,
2013-08-16 19:18:00,86.0,65.8,29.91,NNE,33,4.0,17.0,51,0.00,,,0.00,Wunderground v.1.15,2013-08-17 00:18:00,
2013-08-16 19:24:00,85.7,66.0,29.91,NNE,26,3.0,17.0,52,0.00,,,0.00,Wunderground v.1.15,2013-08-17 00:24:00,
2013-08-16 19:30:00,85.4,65.8,29.92,NNE,16,4.0,17.0,52,0.00,,,0.00,Wunderground v.1.15,2013-08-17 00:30:00,
2013-08-16 19:36:00,85.2,66.1,29.92,NNE,33,3.0,17.0,53,0.00,,,0.00,Wunderground v.1.15,2013-08-17 00:36:00,
2013-08-16 19:42:00,84.8,65.2,29.92,North,352,3.0,17.0,52,0.00,,,0.00,Wunderground v.1.15,2013-08-17 00:42:00,
2013-08-16 19:48:00,84.4,64.9,29.92,NE,40,3.0,17.0,52,0.00,,,0.00,Wunderground v.1.15,2013-08-17 00:48:00,
2013-08-16 19:54:00,83.9,65.5,29.92,NNE,33,3.0,17.0,54,0.00,,,0.00,Wunderground v.1.15,2013-08-17 00:54:00,
2013-08-16 20:00:00,83.4,65.0,29.92,NNE,20,2.0,17.0,54,0.00,,,0.00,Wunderground v.1.15,2013-08-17 01:00:00,
2013-08-16 20:06:00,82.8,65.5,29.92,NNE,33,2.0,17.0,56,0.00,,,0.00,Wunderground v.1.15,2013-08-17 01:06:00,
2013-08-16 20:12:00,82.1,65.4,29.92,NNE,29,2.0,17.0,57,0.00,,,0.00,Wunderground v.1.15,2013-08-17 01:12:00,
2013-08-16 20:18:00,81.5,65.3,29.92,NNE,16,2.0,17.0,58,0.00,,,0.00,Wunderground v.1.15,2013-08-17 01:18:00,
2013-08-16 20:24:00,80.9,65.7,29.92,NNE,24,1.0,17.0,60,0.00,,,0.00,Wunderground v.1.15,2013-08-17 01:24:00,
2013-08-16 20:30:00,80.4,65.7,29.92,NNE,25,1.0,17.0,61,0.00,,,0.00,Wunderground v.1.15,2013-08-17 01:30:00,
2013-08-16 20:36:00,80.1,65.9,29.93,NNE,29,1.0,17.0,62,0.00,,,0.00,Wunderground v.1.15,2013-08-17 01:36:00,
2013-08-16 20:42:00,79.9,65.7,29.93,NNE,12,2.0,17.0,62,0.00,,,0.00,Wunderground v.1.15,2013-08-17 01:42:00,
2013-08-16 20:48:00,79.7,64.6,29.93,North,359,2.0,17.0,60,0.00,,,0.00,Wunderground v.1.15,2013-08-17 01:48:00,
2013-08-16 20:54:00,79.5,63.9,29.94,NE,45,2.0,17.0,59,0.00,,,0.00,Wunderground v.1.15,2013-08-17 01:54:00,
2013-08-16 21:00:00,79.3,63.2,29.94,NNE,20,3.0,17.0,58,0.00,,,0.00,Wunderground v.1.15,2013-08-17 02:00:00,
2013-08-16 21:06:00,79.0,63.0,29.94,NNE,26,3.0,17.0,58,0.00,,,0.00,Wunderground v.1.15,2013-08-17 02:06:00,
2013-08-16 21:12:00,78.9,62.9,29.94,NNE,26,3.0,17.0,58,0.00,,,0.00,Wunderground v.1.15,2013-08-17 02:12:00,
2013-08-16 21:18:00,78.8,63.3,29.95,NE,47,3.0,17.0,59,0.00,,,0.00,Wunderground v.1.15,2013-08-17 02:18:00,
2013-08-16 21:24:00,78.6,63.1,29.95,NNE,12,3.0,17.0,59,0.00,,,0.00,Wunderground v.1.15,2013-08-17 02:24:00,
2013-08-16 21:32:00,78.3,63.3,29.95,NNE,23,3.0,17.0,60,0.00,,,0.00,Wunderground v.1.15,2013-08-17 02:32:00,
2013-08-16 21:38:00,78.2,63.6,29.96,NNE,28,4.0,17.0,61,0.00,,,0.00,Wunderground v.1.15,2013-08-17 02:38:00,
2013-08-16 21:44:00,78.1,63.6,29.96,NNE,20,4.0,17.0,61,0.00,,,0.00,Wunderground v.1.15,2013-08-17 02:44:00,
2013-08-16 21:50:00,78.0,63.9,29.97,NNE,23,4.0,17.0,62,0.00,,,0.00,Wunderground v.1.15,2013-08-17 02:50:00,
2013-08-16 21:56:00,77.7,64.1,29.97,North,8,4.0,17.0,63,0.00,,,0.00,Wunderground v.1.15,2013-08-17 02:56:00,
2013-08-16 22:02:00,77.5,63.9,29.97,NNE,15,4.0,17.0,63,0.00,,,0.00,Wunderground v.1.15,2013-08-17 03:02:00,
2013-08-16 22:08:00,77.3,64.2,29.97,NE,34,4.0,17.0,64,0.00,,,0.00,Wunderground v.1.15,2013-08-17 03:08:00,
2013-08-16 22:14:00,77.2,64.1,29.98,NNE,29,3.0,17.0,64,0.00,,,0.00,Wunderground v.1.15,2013-08-17 03:14:00,
2013-08-16 22:20:00,77.0,63.9,29.98,NNE,20,3.0,17.0,64,0.00,,,0.00,Wunderground v.1.15,2013-08-17 03:20:00,
2013-08-16 22:26:00,76.9,63.8,29.98,NNE,27,3.0,17.0,64,0.00,,,0.00,Wunderground v.1.15,2013-08-17 03:26:00,
2013-08-16 22:32:00,76.8,63.7,29.98,NNE,27,3.0,17.0,64,0.00,,,0.00,Wunderground v.1.15,2013-08-17 03:32:00,
2013-08-16 22:38:00,76.6,64.0,29.98,NNE,30,3.0,17.0,65,0.00,,,0.00,Wunderground v.1.15,2013-08-17 03:38:00,
2013-08-16 22:44:00,76.6,64.0,29.99,NNE,14,4.0,17.0,65,0.00,,,0.00,Wunderground v.1.15,2013-08-17 03:44:00,
2013-08-16 22:50:00,76.6,64.0,29.99,NNE,18,4.0,17.0,65,0.00,,,0.00,Wunderground v.1.15,2013-08-17 03:50:00,
2013-08-16 22:56:00,76.4,63.8,29.99,NNE,12,4.0,17.0,65,0.00,,,0.00,Wunderground v.1.15,2013-08-17 03:56:00,
2013-08-16 23:02:00,76.2,63.6,29.99,NNE,33,3.0,17.0,65,0.00,,,0.00,Wunderground v.1.15,2013-08-17 04:02:00,
2013-08-16 23:04:00,76.1,63.9,29.99,NNE,20,3.0,17.0,66,0.00,,,0.00,Wunderground v.1.15,2013-08-17 04:04:00,
2013-08-16 23:06:00,76.1,63.9,29.99,NNE,25,3.0,17.0,66,0.00,,,0.00,Wunderground v.1.15,2013-08-17 04:06:00,
2013-08-16 23:10:00,75.9,63.7,29.99,NNE,26,3.0,17.0,66,0.00,,,0.00,Wunderground v.1.15,2013-08-17 04:10:00,
2013-08-16 23:16:00,75.8,63.6,29.99,NE,34,3.0,17.0,66,0.00,,,0.00,Wunderground v.1.15,2013-08-17 04:16:00,
2013-08-16 23:18:00,75.8,64.1,29.99,North,8,3.0,17.0,67,0.00,,,0.00,Wunderground v.1.15,2013-08-17 04:18:00,
2013-08-16 23:24:00,75.7,64.0,29.99,NNE,23,3.0,17.0,67,0.00,,,0.00,Wunderground v.1.15,2013-08-17 04:24:00,
2013-08-16 23:30:00,75.7,64.0,30.00,NNE,23,3.0,3.0,67,0.00,,,0.00,Wunderground v.1.15,2013-08-17 04:30:00,
2013-08-16 23:36:00,75.7,64.0,30.00,NNE,27,3.0,17.0,67,0.00,,,0.00,Wunderground v.1.15,2013-08-17 04:36:00,
2013-08-16 23:42:00,75.8,64.1,29.99,NNE,13,3.0,17.0,67,0.00,,,0.00,Wunderground v.1.15,2013-08-17 04:42:00,
2013-08-16 23:48:00,75.7,64.0,30.00,NNE,23,3.0,17.0,67,0.00,,,0.00,Wunderground v.1.15,2013-08-17 04:48:00,
2013-08-16 23:54:00,75.7,63.5,30.00,NNE,26,4.0,17.0,66,0.00,,,0.00,Wunderground v.1.15,2013-08-17 04:54:00,